This is the latest recevied weather packets stored in our database for station/object KSRC. If no packets are shown the sender has not sent any weather packets the latest 1 day(s).
| Time | Temp. | Humidity | Pressure | Rain* | Wind** | Luminosity | Snow |
|---|---|---|---|---|---|---|---|
| 1778063619 | 10° C | 93% | 1012.9 hPa | - | - | - | - |
| 1778063021 | 10° C | 93% | 1012.9 hPa | - | - | - | - |
| 1778061222 | 10° C | 93% | 1011.5 hPa | - | - | - | - |
| 1778060744 | 10° C | 93% | 1011.5 hPa | - | - | - | - |
| 1778059419 | 10° C | 93% | 1011.5 hPa | - | - | - | - |
| 1778058222 | 10.56° C | 87% | 1012.5 hPa | - | - | - | - |
| 1778057622 | 10.56° C | 87% | 1013.2 hPa | - | - | - | - |
| 1778055818 | 10.56° C | 87% | 1011.9 hPa | - | - | - | - |
| 1778055217 | 10.56° C | 87% | 1010.8 hPa | - | - | - | - |
| 1778054618 | 10.56° C | 87% | 1010.5 hPa | - | - | - | - |
| 1778054016 | 10.56° C | 93% | 1010.2 hPa | - | - | - | - |
| 1778053420 | 10.56° C | 93% | 1010.2 hPa | - | - | - | - |
| 1778052219 | 10.56° C | 93% | 1010.2 hPa | - | - | - | - |
| 1778051620 | 10.56° C | 93% | 1010.2 hPa | - | - | - | - |
| 1778051020 | 10.56° C | 93% | 1010.2 hPa | - | - | - | - |
| 1778049817 | 11.67° C | 93% | 1009.1 hPa | - | - | - | - |
| 1778049224 | 11.67° C | 93% | 1009.1 hPa | - | - | - | - |
| 1778048017 | 11.67° C | 93% | 1009.1 hPa | - | - | - | - |
| 1778047422 | 11.67° C | 93% | 1009.1 hPa | - | - | - | - |
| 1778044418 | 13.89° C | 93% | 1009.1 hPa | - | - | - | - |
| 1778043820 | 13.89° C | 93% | 1009.1 hPa | - | - | - | - |
| 1778043217 | 16.67° C | 93% | 1007.8 hPa | - | - | - | - |
| 1778042620 | 16.67° C | 93% | 1007.8 hPa | - | - | - | - |
| 1778042019 | 16.67° C | 93% | 1007.8 hPa | - | - | - | - |
| 1778041419 | 20.56° C | 88% | 1007.5 hPa | - | - | - | - |
* Rain since midnight (hover to see other rain measurements)
** Current wind speed in m/s (hover to see current wind gust speed)